| time (UTC) | temp F | wind direction | speed MPH | gust MPH | rain 1hr in | rain 24hr in | rain mn in | humidity % | barometer mb |
| 20260503220805 | 58 | 338 | 10.0 | 20.0 | 0.00 | 0.00 | 0.00 | 77 | 1013.0 |
| 20260503220305 | 58 | 348 | 10.0 | 20.0 | 0.00 | 0.00 | 0.00 | 77 | 1013.0 |
| 20260503215804 | 57 | 355 | 10.0 | 18.0 | 0.00 | 0.00 | 0.00 | 78 | 1012.9 |
| 20260503215305 | 57 | 9 | 8.0 | 18.0 | 0.00 | 0.00 | 0.00 | 79 | 1012.9 |
| 20260503214807 | 57 | 5 | 8.0 | 16.0 | 0.00 | 0.00 | 0.00 | 79 | 1012.9 |
| 20260503214304 | 57 | 335 | 8.0 | 16.0 | 0.00 | 0.00 | 0.00 | 79 | 1012.8 |
| 20260503213805 | 57 | 346 | 8.0 | 18.0 | 0.00 | 0.00 | 0.00 | 79 | 1013.0 |
| 20260503213305 | 57 | 341 | 8.0 | 18.0 | 0.00 | 0.00 | 0.00 | 79 | 1013.0 |
| 20260503212805 | 57 | 342 | 9.0 | 16.0 | 0.00 | 0.00 | 0.00 | 79 | 1013.0 |
| 20260503212305 | 57 | 355 | 8.0 | 16.0 | 0.00 | 0.00 | 0.00 | 79 | 1013.0 |
| 20260503211804 | 57 | 329 | 8.0 | 18.0 | 0.00 | 0.00 | 0.00 | 78 | 1012.9 |
| 20260503211305 | 57 | 345 | 8.0 | 18.0 | 0.00 | 0.00 | 0.00 | 78 | 1012.9 |
| 20260503211140 | 57 | 355 | 8.0 | 15.0 | 0.00 | 0.00 | 0.00 | 77 | 1012.8 |
| 20260503202749 | 57 | 317 | 6.0 | 12.0 | 0.00 | 0.00 | 0.00 | 76 | 1012.8 |
| 20260503202249 | 57 | 37 | 5.0 | 12.0 | 0.00 | 0.00 | 0.00 | 77 | 1012.7 |
| 20260503201749 | 57 | 344 | 5.0 | 12.0 | 0.00 | 0.00 | 0.00 | 77 | 1012.7 |
| 20260503201248 | 57 | 355 | 5.0 | 10.0 | 0.00 | 0.00 | 0.00 | 78 | 1012.6 |
| 20260503200758 | 57 | 340 | 5.0 | 10.0 | 0.00 | 0.00 | 0.00 | 78 | 1012.5 |
| 20260503194837 | 56 | 314 | 5.0 | 11.0 | 0.00 | 0.00 | 0.00 | 79 | 1012.5 |
| 20260503194832 | 56 | 350 | 6.0 | 11.0 | 0.00 | 0.00 | 0.00 | 79 | 1012.4 |
| 20260503192250 | 56 | 347 | 5.0 | 13.0 | 0.00 | 0.00 | 0.00 | 79 | 1012.8 |
| 20260503191759 | 57 | 17 | 6.0 | 12.0 | 0.00 | 0.00 | 0.00 | 80 | 1012.7 |
| 20260503191303 | 57 | 355 | 5.0 | 12.0 | 0.00 | 0.00 | 0.00 | 80 | 1012.9 |
| 20260503190752 | 57 | 351 | 5.0 | 12.0 | 0.00 | 0.00 | 0.00 | 80 | 1013.0 |
| 20260503190520 | 57 | 355 | 5.0 | 14.0 | 0.00 | 0.00 | 0.00 | 80 | 1013.0 |
| 20260503190241 | 57 | 30 | 6.0 | 14.0 | 0.00 | 0.00 | 0.00 | 80 | 1012.9 |
| 20260503190021 | 57 | 30 | 6.0 | 14.0 | 0.00 | 0.00 | 0.00 | 80 | 1012.9 |
| 20260503185753 | 57 | 30 | 6.0 | 14.0 | 0.00 | 0.00 | 0.00 | 80 | 1012.9 |
| 20260503185246 | 56 | 13 | 6.0 | 13.0 | 0.00 | 0.00 | 0.00 | 81 | 1013.0 |
| 20260503184749 | 56 | 350 | 6.0 | 13.0 | 0.00 | 0.00 | 0.00 | 81 | 1013.0 |
| 20260503184512 | 56 | 347 | 5.0 | 13.0 | 0.00 | 0.00 | 0.00 | 81 | 1013.1 |
| 20260503183805 | 56 | 355 | 5.0 | 11.0 | 0.00 | 0.00 | 0.00 | 81 | 1013.1 |
| 20260503183257 | 56 | 355 | 5.0 | 10.0 | 0.00 | 0.00 | 0.00 | 81 | 1013.0 |
| 20260503182749 | 56 | 331 | 5.0 | 10.0 | 0.00 | 0.00 | 0.00 | 81 | 1013.1 |
| 20260503182252 | 56 | 345 | 5.0 | 13.0 | 0.00 | 0.00 | 0.00 | 82 | 1013.2 |
| 20260503181744 | 56 | 20 | 5.0 | 13.0 | 0.00 | 0.00 | 0.00 | 82 | 1013.1 |
| 20260503181247 | 56 | 333 | 5.0 | 9.0 | 0.00 | 0.00 | 0.00 | 82 | 1013.1 |
| 20260503181022 | 56 | 350 | 4.0 | 9.0 | 0.00 | 0.00 | 0.00 | 82 | 1013.1 |
| 20260503180258 | 56 | 11 | 4.0 | 14.0 | 0.00 | 0.00 | 0.00 | 82 | 1013.2 |
| 20260503175800 | 56 | 355 | 4.0 | 14.0 | 0.00 | 0.00 | 0.00 | 83 | 1013.3 |
| 20260503175243 | 56 | 5 | 4.0 | 12.0 | 0.00 | 0.00 | 0.00 | 83 | 1013.3 |
| 20260503174751 | 56 | 326 | 3.0 | 11.0 | 0.00 | 0.00 | 0.00 | 83 | 1013.4 |
| 20260503174239 | 56 | 5 | 3.0 | 10.0 | 0.00 | 0.00 | 0.00 | 83 | 1013.6 |
| 20260503173810 | 56 | 34 | 3.0 | 10.0 | 0.00 | 0.00 | 0.00 | 83 | 1013.6 |
| 20260503173506 | 56 | 5 | 3.0 | 6.0 | 0.00 | 0.00 | 0.00 | 83 | 1013.6 |
| 20260503173253 | 56 | 5 | 3.0 | 6.0 | 0.00 | 0.00 | 0.00 | 83 | 1013.6 |
| 20260503172758 | 56 | 326 | 3.0 | 5.0 | 0.00 | 0.00 | 0.00 | 83 | 1013.7 |
| 20260503172248 | 56 | 32 | 3.0 | 5.0 | 0.00 | 0.00 | 0.00 | 83 | 1013.7 |
| 20260503171738 | 56 | 22 | 3.0 | 7.0 | 0.00 | 0.00 | 0.00 | 83 | 1013.7 |
| 20260503171249 | 56 | 5 | 3.0 | 7.0 | 0.00 | 0.00 | 0.00 | 83 | 1013.8 |
| 20260503170748 | 56 | 19 | 3.0 | 6.0 | 0.00 | 0.00 | 0.00 | 83 | 1013.8 |
| 20260503170500 | 56 | 22 | 3.0 | 8.0 | 0.00 | 0.00 | 0.00 | 83 | 1013.8 |
| 20260503150715 | 57 | 350 | 7.0 | 13.0 | 0.00 | 0.00 | 0.00 | 82 | 1013.9 |
| 20260503150158 | 57 | 340 | 7.0 | 14.0 | 0.00 | 0.00 | 0.00 | 82 | 1013.9 |
| 20260503131223 | 59 | 5 | 5.0 | 11.0 | 0.00 | 0.00 | 0.32 | 82 | 1014.8 |
| 20260503130455 | 59 | 355 | 5.0 | 12.0 | 0.00 | 0.00 | 0.32 | 81 | 1014.8 |
| 20260503130232 | 59 | 355 | 6.0 | 12.0 | 0.00 | 0.00 | 0.32 | 81 | 1014.8 |
| 20260503080816 | 61 | 351 | 1.0 | 5.0 | 0.00 | 0.00 | 0.32 | 66 | 1013.1 |
| 20260503080309 | 61 | 349 | 2.0 | 5.0 | 0.00 | 0.00 | 0.32 | 65 | 1013.0 |
| 20260503072727 | 63 | 310 | 3.0 | 9.0 | 0.00 | 0.00 | 0.32 | 62 | 1012.8 |
| 20260503072221 | 63 | 9 | 3.0 | 8.0 | 0.00 | 0.00 | 0.32 | 61 | 1012.8 |
| 20260503072028 | 63 | 333 | 4.0 | 9.0 | 0.00 | 0.00 | 0.32 | 61 | 1012.9 |
| 20260503071249 | 64 | 317 | 4.0 | 11.0 | 0.00 | 0.00 | 0.32 | 59 | 1012.9 |
| 20260503070703 | 64 | 0 | 3.0 | 11.0 | 0.00 | 0.00 | 0.32 | 58 | 1012.9 |
| 20260503070157 | 64 | 344 | 3.0 | 9.0 | 0.00 | 0.00 | 0.32 | 58 | 1012.8 |
| 20260503060143 | 65 | 292 | 2.0 | 8.0 | 0.00 | 0.00 | 0.32 | 67 | 1012.1 |
| 20260503054643 | 65 | 0 | 3.0 | 9.0 | 0.00 | 0.00 | 0.32 | 69 | 1012.2 |
| 20260503054143 | 64 | 312 | 3.0 | 11.0 | 0.00 | 0.00 | 0.32 | 70 | 1012.3 |
| 20260503053643 | 64 | 0 | 4.0 | 11.0 | 0.00 | 0.00 | 0.32 | 70 | 1012.3 |
| 20260503053144 | 64 | 338 | 5.0 | 12.0 | 0.00 | 0.00 | 0.32 | 71 | 1012.4 |
| 20260503052644 | 64 | 309 | 6.0 | 14.0 | 0.00 | 0.00 | 0.32 | 72 | 1012.2 |
| 20260503052141 | 64 | 20 | 7.0 | 14.0 | 0.00 | 0.00 | 0.32 | 74 | 1012.3 |
| 20260503051638 | 64 | 336 | 7.0 | 12.0 | 0.00 | 0.00 | 0.32 | 75 | 1012.3 |
| 20260503051140 | 64 | 346 | 6.0 | 12.0 | 0.00 | 0.00 | 0.32 | 77 | 1012.2 |
| 20260503045625 | 63 | 326 | 6.0 | 3.0 | 0.00 | 0.00 | 0.32 | 79 | 1012.4 |
| 20260503044515 | 63 | 28 | 3.0 | 7.0 | 0.00 | 0.00 | 0.31 | 81 | 1012.2 |
| 20260503044003 | 62 | 318 | 3.0 | 1.0 | 0.00 | 0.00 | 0.31 | 82 | 1012.3 |
| 20260503042831 | 63 | 341 | 2.0 | 2.0 | 0.00 | 0.00 | 0.31 | 82 | 1012.2 |